Weather History for Kinston, NC

Change the Weather History Date:

Tuesday, August 6, 2013

  Actual Average Record
Temperature  
Mean Temperature 76 °F -  
Max Temperature 86 °F 87 °F 96 °F (1977)
Min Temperature 65 °F 68 °F 59 °F (2004)
Cooling Degree Days 10    
Growing Degree Days 26 (Base 50)    
Moisture  
Dew Point 64 °F    
Average Humidity 75    
Maximum Humidity 93    
Minimum Humidity 43    
Precipitation  
Precipitation 0.00 in - - ()
Sea Level Pressure  
Sea Level Pressure 30.06 in    
Wind  
Wind Speed 3 mph (SSE)    
Max Wind Speed 9 mph    
Max Gust Speed -    
Visibility 10 miles    
Events      
Averages and records for this station are not official NWS values.
T = Trace of Precipitation, MM = Missing Value Source: NWS Daily Summary

Daily Weather History Graph

Daily Weather History Graph

Search for Another Location

Airport:

Trip Planner

Search our weather history database for the weather conditions in past years. The results will help you decide how hot, cold, wet, or windy it might be!

Date:

Astronomy

Aug. 06, 2013 Rise Set
Actual Time 6:23 AM EDT 8:08 PM EDT
Civil Twilight 5:55 AM EDT 8:36 PM EDT
Nautical Twilight 5:22 AM EDT 9:09 PM EDT
Astronomical Twilight 4:46 AM EDT 9:44 PM EDT
Moon 6:10 AM EDT (8/6) 7:45 PM EDT (8/6)
Length of Visible Light 14h 40m
Length of Day
13h 45m
Waning Crescent, 0% of the Moon is Illuminated
Aug 6
Waning Crescent
Aug 6
New
Aug 14
First Quarter
Aug 20
Full
Aug 28
Last Quarter

Hourly Weather History & Observations

Time (EDT) Temp. Heat Index Dew Point Humidity Pressure Visibility Wind Dir Wind Speed Gust Speed Precip Events Conditions
12:15 AM 72.3 °F - 64.6 °F 77% 30.07 in 10.0 mi South 4.6 mph - N/A   Scattered Clouds
12:35 AM 72.5 °F - 64.0 °F 75% 30.07 in 10.0 mi South 3.5 mph - N/A   Mostly Cloudy
12:55 AM 72.7 °F - 63.0 °F 71% 30.07 in 10.0 mi South 5.8 mph - N/A   Mostly Cloudy
1:15 AM 72.7 °F - 62.2 °F 70% 30.06 in 10.0 mi South 4.6 mph - N/A   Mostly Cloudy
1:35 AM 72.3 °F - 61.5 °F 69% 30.06 in 10.0 mi South 4.6 mph - N/A   Mostly Cloudy
1:55 AM 71.1 °F - 61.7 °F 72% 30.05 in 10.0 mi SSW 3.5 mph - N/A   Scattered Clouds
2:15 AM 68.9 °F - 61.7 °F 78% 30.05 in 10.0 mi Calm Calm - N/A   Clear
2:35 AM 67.8 °F - 61.3 °F 80% 30.05 in 10.0 mi Calm Calm - N/A   Mostly Cloudy
2:55 AM 70.9 °F - 60.8 °F 70% 30.04 in 10.0 mi SE 3.5 mph - N/A   Mostly Cloudy
3:15 AM 69.4 °F - 61.0 °F 74% 30.04 in 10.0 mi Calm Calm - N/A   Scattered Clouds
3:35 AM 66.7 °F - 61.9 °F 84% 30.03 in 10.0 mi Calm Calm - N/A   Clear
3:55 AM 65.8 °F - 61.9 °F 87% 30.03 in 10.0 mi Calm Calm - N/A   Clear
4:15 AM 65.3 °F - 62.6 °F 91% 30.03 in 10.0 mi Calm Calm - N/A   Clear
4:35 AM 65.3 °F - 62.8 °F 92% 30.03 in 10.0 mi Calm Calm - N/A   Clear
4:55 AM 65.3 °F - 62.8 °F 92% 30.02 in 10.0 mi Calm Calm - N/A   Scattered Clouds
5:15 AM 65.5 °F - 63.0 °F 92% 30.03 in 10.0 mi Calm Calm - N/A   Scattered Clouds
5:35 AM 65.7 °F - 63.3 °F 92% 30.04 in 10.0 mi Calm Calm - N/A   Clear
5:55 AM 65.8 °F - 63.3 °F 92% 30.03 in 10.0 mi Calm Calm - N/A   Clear
6:15 AM 65.8 °F - 63.7 °F 93% 30.03 in 10.0 mi Calm Calm - N/A   Clear
6:35 AM 66.0 °F - 63.5 °F 92% 30.05 in 10.0 mi Calm Calm - N/A   Scattered Clouds
6:55 AM 67.3 °F - 63.9 °F 89% 30.06 in 10.0 mi Calm Calm - N/A   Clear
6:56 AM 68.0 °F - 64.4 °F 88% 30.06 in 10.0 mi Calm Calm - N/A   Clear
7:56 AM 68.0 °F - 64.4 °F 88% 30.07 in 10.0 mi Calm Calm - N/A   Clear
8:56 AM 69.8 °F - 66.2 °F 88% 30.07 in 10.0 mi Calm Calm - N/A   Clear
9:56 AM 75.2 °F - 66.2 °F 73% 30.07 in 10.0 mi South 3.5 mph - N/A   Clear
10:56 AM 78.8 °F - 64.4 °F 61% 30.08 in 10.0 mi SE 3.5 mph - N/A   Clear
11:56 AM 80.6 °F 81.8 °F 62.6 °F 54% 30.08 in 10.0 mi SSE 3.5 mph - N/A   Clear
12:56 PM 82.4 °F 82.9 °F 60.8 °F 48% 30.09 in 7.0 mi SE 4.6 mph - N/A   Clear
1:56 PM 86.0 °F 87.3 °F 64.4 °F 48% 30.07 in 10.0 mi SSE 5.8 mph - N/A   Partly Cloudy
2:56 PM 84.2 °F 85.0 °F 62.6 °F 48% 30.07 in 10.0 mi South 6.9 mph - N/A   Scattered Clouds
3:56 PM 86.0 °F 86.1 °F 60.8 °F 43% 30.06 in 10.0 mi SW 8.1 mph - N/A   Clear
4:56 PM 82.4 °F 83.9 °F 64.4 °F 54% 30.06 in 10.0 mi South 8.1 mph - N/A   Scattered Clouds
5:56 PM 84.2 °F 85.0 °F 62.6 °F 48% 30.05 in 10.0 mi South 9.2 mph - N/A   Clear
6:56 PM 82.4 °F 83.4 °F 62.6 °F 51% 30.05 in 10.0 mi South 5.8 mph - N/A   Clear
7:56 PM 78.8 °F - 64.4 °F 61% 30.06 in 10.0 mi SSE 4.6 mph - N/A   Clear
8:56 PM 73.4 °F - 66.2 °F 78% 30.08 in 10.0 mi South 3.5 mph - N/A   Clear
9:15 PM 73.0 °F - 66.4 °F 80% 30.07 in 10.0 mi SSE 3.5 mph - N/A   Clear
9:35 PM 73.6 °F - 65.8 °F 77% 30.08 in 10.0 mi SSE 4.6 mph - N/A   Clear
10:15 PM 73.0 °F - 65.5 °F 77% 30.09 in 10.0 mi SSE 4.6 mph - N/A   Clear
10:35 PM 74.3 °F - 65.3 °F 73% 30.09 in 10.0 mi SSE 5.8 mph - N/A   Clear
10:55 PM 73.4 °F - 65.8 °F 77% 30.09 in 10.0 mi SSE 4.6 mph - N/A   Clear
11:15 PM 73.2 °F - 66.2 °F 79% 30.09 in 10.0 mi SSE 4.6 mph - N/A   Clear
11:35 PM 72.9 °F - 66.2 °F 80% 30.09 in 10.0 mi South 3.5 mph - N/A   Clear
11:55 PM 72.5 °F - 66.2 °F 81% 30.09 in 10.0 mi South 3.5 mph - N/A   Clear